Weather Roundup
Issued by NWS Chicago, IL

Home | Current Version | Previous Version | Graphics & Text | Print | Product List | Glossary On
Versions: 1 2 3 4 5 6 7 8 9 10 11 12 13 14 15 16 17 18 19 20 21 22 23 24 25 26 27 28 29 30 31 32 33 34 35 36 37 38 39 40 41 42 43 44 45 46 47 48 49 50
000
NZUS59 KLOT 270109
HRRLOT

CHICAGO AREA WEATHER ROUNDUP
NATIONAL WEATHER SERVICE CHICAGO/ROMEOVILLE IL
800 PM CDT FRI MAY 26 2017

NOTE: "FAIR" INDICATES FEW OR NO CLOUDS BELOW 12,000 FEET WITH NO
SIGNIFICANT WEATHER AND/OR OBSTRUCTIONS TO VISIBILITY.

* THESE STATIONS ARE NOT UNDER NWS QUALITY CONTROL. THEY ALSO MAY NOT
  REPORT WEATHER SUCH AS PRECIPITATION OR FOG.

ILZ005-006-012>014-019>023-270200-
NORTHEAST ILLINOIS

CITY           SKY/WX    TMP DP  RH WIND       PRES   REMARKS
OHARE          LGT RAIN  56  53  90 NE10      29.83R
MIDWAY         DRIZZLE   59  56  89 NE14      29.81S
AURORA         CLOUDY    59  57  93 NE10      29.82R
LANSING*       CLOUDY    57  56  94 NE8       29.82S
JOLIET*        CLOUDY    61  58  90 NE10      29.81S
WAUKEGAN       LGT RAIN  55  54  96 NE6       29.83F FOG
DUPAGE AIRPORT CLOUDY    56  56 100 NE14      29.82R
WHEELING       LGT RAIN  54  54 100 NE7       29.85R FOG
KANKAKEE*      CLOUDY    65  64  96 CALM      29.79S
MORRIS*        CLOUDY    62  59  89 CALM      29.79R
LEWIS AIRPORT* CLOUDY    58  58  99 N5        29.83R
$$

WIZ051-052-058>065-066-070>072-270200-
SOUTHEAST WISCONSIN

CITY           SKY/WX    TMP DP  RH WIND       PRES   REMARKS
MILWAUKEE      CLOUDY    56  54  93 SE6       29.84F
KENOSHA*       CLOUDY    57  54  89 E7        29.84F
RACINE*        CLOUDY    55  52  89 E6        29.86S
WAUKESHA       PTCLDY    57  54  88 CALM      29.85S
WEST BEND      MOCLDY    59  54  82 CALM      29.85R
$$

INZ001>003-010>013-019-020-270200-
NORTHWEST INDIANA

CITY           SKY/WX    TMP DP  RH WIND       PRES   REMARKS
GARY*          CLOUDY    57  54  88 E12       29.83S
MICHIGAN CITY* NOT AVBL
RENSSELAER*    NOT AVBL
VALPARAISO     LGT RAIN  64  61  90 VRB3      29.83R
$$

LMZ740>746-270200-
SOUTHERN LAKE MICHIGAN

STATION/POSITION TIME  SKY/WX   TEMP WIND        PRES    VSBY
                                AIR  DIR/SP/G
                 (UTC)          (F)  (DEG/KT/KT) (MB)    (MI)
HARRISON CRIB    0040            54   30/ 14/ 16   N/A
BURNHAM HARBOR   0100            54   10/ 10/ 13   N/A
CALUMET HARBOR   0048            55  350/  6/  8 1009.6R
BURNS HARBOR     0040            57   60/ 18/ 23 1010.5R
MICHIGAN CITY    0040            54   30/ 18/ 19   N/A
$$

ABBREVIATIONS USED IN REMARKS
   TC - TEMPERATURE IN CELSIUS
  WCI - WIND CHILL INDEX
   HX - HEAT INDEX
  VSB - VISIBILITY
$$




USA.gov is the U.S. government's official web portal to all federal, state and local government web resources and services.